This demonstration page uses our WeatherBlox Daily Observations layout. Learn more.

Left ArrowRight Arrow

44.8408, -93.29828

Hourly Observations for July 3, 2021

Temp ( °F °C ) Dew Point ( °F °C ) Humidity (%) Winds ( mph kmh ) Pressure ( in mb ) Visibility ( mi km ) Precip ( " mm )
12:53 am 00:53 Clear 74 23.3 56 13.3 54 54 W 7 11 30.04 1017 10 16 0.00 0.00
1:53 am 01:53 Clear 73 22.8 56 13.3 55 55 WSW 5 7 30.04 1017 10 16 0.00 0.00
2:53 am 02:53 Clear 72 22.2 55 12.8 55 55 WSW 3 6 30.04 1017 10 16 0.00 0.00
3:53 am 03:53 Clear 70 21.1 56 13.3 61 61 SSW 3 6 30.05 1018 10 16 0.00 0.00
4:53 am 04:53 Clear 68 20 58 14.4 70 70 SW 3 6 30.06 1018 10 16 0.00 0.00
5:53 am 05:53 Sunny 68 20 57 13.9 68 68 SSW 3 6 30.06 1018 10 16 0.00 0.00
6:53 am 06:53 Sunny 68 20 57 13.9 68 68 SW 5 7 30.06 1018 10 16 0.00 0.00
7:53 am 07:53 Sunny 71 21.7 55 12.8 57 57 WSW 7 11 30.06 1018 10 16 0.00 0.00
8:53 am 08:53 Sunny 73 22.8 53 11.7 50 50 WSW 8 13 30.06 1018 10 16 0.00 0.00
9:53 am 09:53 Sunny 77 25 53 11.7 43 43 WSW 8 13 30.05 1018 10 16 0.00 0.00
10:53 am 10:53 Sunny 80 26.7 55 12.8 42 42 SW 8 13 30.03 1017 10 16 0.00 0.00
11:53 am 11:53 Sunny 81 27.2 55 12.8 41 41 SSW 8 13 30.02 1017 10 16 0.00 0.00
12:53 pm 12:53 Mostly Sunny 83 28.3 57 13.9 41 41 SSW 9 15 30.00 1016 10 16 0.00 0.00
1:53 pm 13:53 Partly Cloudy 84 28.9 56 13.3 38 38 SW 12 19 29.98 1015 10 16 0.00 0.00
2:53 pm 14:53 Partly Cloudy 85 29.4 57 13.9 39 39 SSW 10 17 29.97 1015 10 16 0.00 0.00
3:53 pm 15:53 Partly Cloudy 86 30 56 13.3 36 36 SSW 13 20 29.95 1014 10 16 0.00 0.00
4:53 pm 16:53 Mostly Sunny 87 30.6 50 10 28 28 SSW 12 19 29.93 1013 10 16 0.00 0.00
5:53 pm 17:53 Partly Cloudy 86 30 52 11.1 31 31 SSW 7 11 29.92 1013 10 16 0.00 0.00
6:53 pm 18:53 Partly Cloudy 85 29.4 57 13.9 39 39 SSW 10 17 29.91 1013 10 16 0.00 0.00
7:53 pm 19:53 Partly Cloudy 84 28.9 61 16.1 46 46 S 9 15 29.90 1013 10 16 0.00 0.00
8:53 pm 20:53 Mostly Cloudy 82 27.8 62 16.7 51 51 SSE 7 11 29.88 1012 10 16 0.00 0.00
9:53 pm 21:53 Mostly Cloudy 79 26.1 63 17.2 58 58 SSE 7 11 29.89 1012 10 16 0.00 0.00
10:53 pm 22:53 Mostly Cloudy 79 26.1 62 16.7 56 56 S 8 13 29.89 1012 10 16 0.00 0.00
11:53 pm 23:53 Mostly Cloudy 79 26.1 63 17.2 58 58 S 7 11 29.90 1012 10 16 0.00 0.00

Powered by AerisWeather